• In Kazakhstan
  • List of Countries
  • For 7 days
  • Water Temperature
  • Satellite Maps
  • Weather Map
  • News
  • Weather Widgets
  • user-avatar
    Login

    Hourly Weather Kormanice

    Today, 21 April, Sunday

    Time Temperature Precipitation Wind Pressure Humidity
    00:00 +10°C° 0 mm 1 mps 742 mmHg 68%
    01:00 +9°C° 0 mm 1 mps 742 mmHg 71%
    02:00 +8°C° 0 mm 1 mps 742 mmHg 73%
    03:00 +8°C° 0 mm 1 mps 742 mmHg 74%
    04:00 +8°C° 0 mm 1 mps 741 mmHg 74%
    05:00 +8°C° 0 mm 1 mps 741 mmHg 75%
    06:00 +8°C° 0 mm 2 mps 741 mmHg 73%
    07:00 +9°C° 0 mm 2 mps 741 mmHg 71%
    08:00 +10°C° 0 mm 2 mps 741 mmHg 70%
    09:00 +11°C° 0 mm 3 mps 741 mmHg 66%
    10:00 +12°C° 0 mm 3 mps 741 mmHg 63%
    11:00 +13°C° 0 mm 3 mps 741 mmHg 60%
    12:00 +14°C° 0.4 mm 4 mps 740 mmHg 59%
    13:00 +14°C° 0.4 mm 4 mps 740 mmHg 59%
    14:00 +15°C° 0.4 mm 4 mps 740 mmHg 58%
    15:00 +14°C° 0.8 mm 4 mps 740 mmHg 62%
    16:00 +14°C° 0.8 mm 4 mps 739 mmHg 65%
    17:00 +13°C° 0.8 mm 4 mps 739 mmHg 69%
    18:00 +12°C° 0.5 mm 3 mps 739 mmHg 74%
    19:00 +10°C° 0.5 mm 2 mps 739 mmHg 79%
    20:00 +9°C° 0.5 mm 1 mps 738 mmHg 84%
    21:00 +9°C° 0 mm 1 mps 738 mmHg 85%
    22:00 +8°C° 0 mm 2 mps 738 mmHg 85%
    23:00 +7°C° 0 mm 2 mps 738 mmHg 86%

    Tomorrow, 22 April, Monday

    Time Temperature Precipitation Wind Pressure Humidity
    00:00 +7°C° 0.2 mm 2 mps 738 mmHg 85%
    01:00 +7°C° 0.2 mm 2 mps 738 mmHg 85%
    02:00 +8°C° 0.2 mm 1 mps 738 mmHg 84%
    03:00 +8°C° 0.2 mm 1 mps 738 mmHg 84%
    04:00 +8°C° 0.2 mm 1 mps 738 mmHg 84%
    05:00 +8°C° 0.2 mm 1 mps 738 mmHg 84%
    06:00 +9°C° 0.2 mm 1 mps 738 mmHg 83%
    07:00 +8°C° 0.2 mm 2 mps 738 mmHg 81%
    08:00 +9°C° 0.2 mm 2 mps 738 mmHg 80%
    09:00 +11°C° 0 mm 3 mps 738 mmHg 74%
    10:00 +12°C° 0 mm 4 mps 739 mmHg 69%
    11:00 +14°C° 0 mm 5 mps 739 mmHg 63%
    12:00 +14°C° 0.1 mm 6 mps 739 mmHg 62%
    13:00 +14°C° 0.1 mm 6 mps 739 mmHg 62%
    14:00 +14°C° 0.1 mm 7 mps 739 mmHg 62%
    15:00 +14°C° 0 mm 7 mps 739 mmHg 62%
    16:00 +12°C° 0 mm 8 mps 739 mmHg 62%
    17:00 +12°C° 0 mm 8 mps 739 mmHg 61%
    18:00 +11°C° 0 mm 8 mps 739 mmHg 63%
    19:00 +9°C° 0 mm 7 mps 739 mmHg 64%
    20:00 +8°C° 0 mm 7 mps 739 mmHg 66%
    21:00 +6°C° 0 mm 7 mps 739 mmHg 65%
    22:00 +6°C° 0 mm 7 mps 740 mmHg 65%
    23:00 +5°C° 0 mm 7 mps 740 mmHg 64%

    Day after tomorrow, 23 April, Tuesday

    Time Temperature Precipitation Wind Pressure Humidity
    00:00 +5°C° 0 mm 6 mps 740 mmHg 65%
    01:00 +5°C° 0 mm 6 mps 740 mmHg 66%
    02:00 +5°C° 0 mm 5 mps 739 mmHg 67%
    03:00 +5°C° 0 mm 5 mps 739 mmHg 68%
    04:00 +5°C° 0 mm 5 mps 740 mmHg 69%
    05:00 +5°C° 0 mm 5 mps 740 mmHg 70%
    06:00 +6°C° 0 mm 5 mps 740 mmHg 70%
    07:00 +7°C° 0 mm 6 mps 740 mmHg 69%
    08:00 +7°C° 0 mm 6 mps 740 mmHg 68%
    09:00 +9°C° 0 mm 6 mps 740 mmHg 64%
    10:00 +11°C° 0 mm 6 mps 740 mmHg 59%
    11:00 +12°C° 0 mm 7 mps 740 mmHg 55%
    12:00 +14°C° 0 mm 7 mps 740 mmHg 54%
    13:00 +15°C° 0 mm 7 mps 739 mmHg 54%
    14:00 +16°C° 0 mm 7 mps 739 mmHg 53%
    15:00 +15°C° 0.1 mm 6 mps 739 mmHg 54%
    16:00 +15°C° 0.1 mm 6 mps 739 mmHg 56%
    17:00 +15°C° 0.1 mm 6 mps 739 mmHg 57%
    18:00 +14°C° 0 mm 6 mps 739 mmHg 58%
    19:00 +11°C° 0 mm 6 mps 739 mmHg 59%
    20:00 +10°C° 0 mm 6 mps 738 mmHg 59%
    21:00 +9°C° 0 mm 5 mps 738 mmHg 63%
    22:00 +9°C° 0 mm 5 mps 739 mmHg 67%
    23:00 +8°C° 0 mm 4 mps 739 mmHg 70%

    24 April, Wednesday

    Time Temperature Precipitation Wind Pressure Humidity
    00:00 +8°C° 0 mm 4 mps 739 mmHg 71%
    01:00 +8°C° 0 mm 4 mps 739 mmHg 71%
    02:00 +8°C° 0 mm 4 mps 739 mmHg 71%
    03:00 +8°C° 0.3 mm 4 mps 739 mmHg 76%
    04:00 +7°C° 0.3 mm 4 mps 739 mmHg 80%
    05:00 +7°C° 0.3 mm 4 mps 739 mmHg 85%
    06:00 +8°C° 0 mm 4 mps 739 mmHg 83%
    07:00 +10°C° 0 mm 4 mps 739 mmHg 81%
    08:00 +10°C° 0 mm 5 mps 740 mmHg 79%
    09:00 +13°C° 0 mm 5 mps 740 mmHg 72%
    10:00 +15°C° 0 mm 5 mps 740 mmHg 66%
    11:00 +17°C° 0 mm 5 mps 740 mmHg 59%
    12:00 +19°C° 0 mm 5 mps 740 mmHg 57%
    13:00 +20°C° 0 mm 5 mps 740 mmHg 55%
    14:00 +21°C° 0 mm 5 mps 740 mmHg 53%
    15:00 +21°C° 0.4 mm 4 mps 740 mmHg 56%
    16:00 +20°C° 0.4 mm 4 mps 740 mmHg 59%
    17:00 +20°C° 0.4 mm 4 mps 740 mmHg 62%
    18:00 +18°C° 0.3 mm 3 mps 740 mmHg 70%
    19:00 +16°C° 0.3 mm 3 mps 740 mmHg 77%
    20:00 +15°C° 0.3 mm 2 mps 740 mmHg 84%
    21:00 +14°C° 0 mm 2 mps 740 mmHg 85%
    22:00 +13°C° 0 mm 2 mps 740 mmHg 87%
    23:00 +12°C° 0 mm 3 mps 740 mmHg 89%

    25 April, Thursday

    Time Temperature Precipitation Wind Pressure Humidity
    00:00 +12°C° 0.6 mm 3 mps 740 mmHg 89%
    01:00 +12°C° 0.6 mm 3 mps 740 mmHg 89%
    02:00 +13°C° 0.6 mm 3 mps 740 mmHg 89%
    03:00 +12°C° 0.1 mm 3 mps 740 mmHg 89%
    04:00 +12°C° 0.1 mm 3 mps 740 mmHg 89%
    05:00 +11°C° 0.1 mm 3 mps 740 mmHg 89%
    06:00 +13°C° 0.1 mm 3 mps 740 mmHg 84%
    07:00 +14°C° 0.1 mm 3 mps 740 mmHg 80%
    08:00 +15°C° 0.1 mm 4 mps 740 mmHg 75%
    09:00 +18°C° 0 mm 4 mps 740 mmHg 68%
    10:00 +20°C° 0 mm 5 mps 740 mmHg 61%
    11:00 +22°C° 0 mm 5 mps 740 mmHg 55%
    12:00 +22°C° 0 mm 5 mps 740 mmHg 52%
    13:00 +23°C° 0 mm 6 mps 740 mmHg 49%
    14:00 +24°C° 0 mm 6 mps 739 mmHg 47%
    15:00 +23°C° 0 mm 5 mps 739 mmHg 51%
    16:00 +23°C° 0 mm 5 mps 739 mmHg 54%
    17:00 +23°C° 0 mm 4 mps 739 mmHg 58%
    18:00 +21°C° 0 mm 4 mps 738 mmHg 64%
    19:00 +19°C° 0 mm 3 mps 738 mmHg 71%
    20:00 +17°C° 0 mm 3 mps 738 mmHg 77%
    21:00 +17°C° 0 mm 3 mps 739 mmHg 78%
    22:00 +17°C° 0 mm 3 mps 739 mmHg 80%
    23:00 +16°C° 0 mm 3 mps 739 mmHg 81%

    26 April, Friday

    Time Temperature Precipitation Wind Pressure Humidity
    00:00 +16°C° 0 mm 3 mps 739 mmHg 83%
    01:00 +16°C° 0 mm 3 mps 738 mmHg 84%
    02:00 +15°C° 0 mm 2 mps 738 mmHg 86%
    03:00 +15°C° 0 mm 2 mps 738 mmHg 87%
    04:00 +14°C° 0 mm 3 mps 738 mmHg 88%
    05:00 +14°C° 0 mm 3 mps 738 mmHg 89%
    06:00 +16°C° 0 mm 3 mps 738 mmHg 83%
    07:00 +17°C° 0 mm 4 mps 738 mmHg 77%
    08:00 +19°C° 0 mm 4 mps 738 mmHg 70%
    09:00 +20°C° 0 mm 4 mps 738 mmHg 65%
    10:00 +22°C° 0 mm 4 mps 737 mmHg 60%
    11:00 +23°C° 0 mm 4 mps 737 mmHg 55%
    12:00 +25°C° 0 mm 4 mps 737 mmHg 52%
    13:00 +26°C° 0 mm 4 mps 737 mmHg 49%
    14:00 +26°C° 0 mm 4 mps 737 mmHg 46%
    15:00 +26°C° 0 mm 4 mps 736 mmHg 48%
    16:00 +26°C° 0 mm 4 mps 736 mmHg 51%
    17:00 +26°C° 0 mm 3 mps 736 mmHg 53%
    18:00 +24°C° 0 mm 3 mps 736 mmHg 60%
    19:00 +21°C° 0 mm 3 mps 735 mmHg 67%
    20:00 +19°C° 0 mm 2 mps 735 mmHg 75%
    21:00 +18°C° 0 mm 2 mps 735 mmHg 77%
    22:00 +18°C° 0 mm 2 mps 735 mmHg 80%
    23:00 +17°C° 0 mm 2 mps 735 mmHg 82%
    Show more